Location: Gerlach
(40.6516°N, 119.3568°W)
Time: 15:58:58
(UTC-07:00)

ITAMSAT 1 - Pass Details

Date: 09 August 2024
Orbit: 782 x 795 km, 98.8° (Epoch: 14 September)

Event Time Altitude Azimuth Distance (km) Brightness Sun altitude
Exits shadow 20:41:53 - 131° (SE) 2,477 9.6 -7.6°
Reaches altitude 10° 20:42:14 10° 129° (SE) 2,352 9.5 -7.7°
Maximum altitude 20:46:48 32° 67° (ENE) 1,331 8.5 -8.5°
Drops below altitude 10° 20:51:24 10° 6° (N) 2,371 10.5 -9.2°
Sets 20:53:56 0° 357° (N) 3,305 11.4 -9.6°
